GW2706 Weather Reports


time (UTC)temp
C
wind
direction
speed
KPH
gust
KPH
rain 1hr
cm
rain 24hr
cm
rain mn
cm
humidity
%
barometer
mb
20260504130158 16 173 0.0 0.0 0.00 0.00 0.00 76 1010.7
20260504120122 13 138 0.0 0.0 0.00 0.00 0.00 90 1010.4
20260504110549 13 148 0.0 3.2 0.00 0.00 0.00 89 1010.0
20260504100511 13 123 0.0 0.0 0.00 0.00 0.00 85 1010.1
20260504081904 14 167 0.0 0.0 0.00 0.00 0.00 78 1010.4
20260504081401 14 123 0.0 0.0 0.00 0.00 0.00 78 1010.0
20260504080856 15 141 0.0 0.0 0.00 0.00 0.00 77 1010.4
20260504080354 15 140 0.0 1.6 0.00 0.00 0.00 77 1010.3
20260504070321 16 175 0.0 0.0 0.00 0.00 0.00 70 1010.6
20260504060241 17 109 1.6 1.6 0.00 0.00 0.00 64 1011.4
20260504050709 16 140 1.6 3.2 0.00 0.00 0.00 66 1012.1
20260504050206 16 176 0.0 1.6 0.00 0.00 0.00 70 1012.3
20260504045703 16 122 0.0 1.6 0.00 0.00 0.00 71 1012.2
20260504045158 16 142 0.0 1.6 0.00 0.00 0.00 70 1012.3
20260504044656 16 148 0.0 0.0 0.00 0.00 0.00 69 1012.5
20260504044153 16 129 1.6 8.0 0.00 0.00 0.00 68 1012.4
20260504043650 16 102 1.6 3.2 0.00 0.00 0.00 70 1012.5
20260504043147 16 104 0.0 0.0 0.00 0.00 0.00 69 1012.5
20260504042644 16 134 0.0 1.6 0.00 0.00 0.00 67 1012.6
20260504042141 16 102 1.6 1.6 0.00 0.00 0.00 67 1012.5
20260504041636 16 103 1.6 3.2 0.00 0.00 0.00 66 1012.7
20260504041133 16 101 1.6 3.2 0.00 0.00 0.00 67 1012.7
20260504040630 16 93 3.2 3.2 0.00 0.00 0.00 65 1012.7
20260504040127 16 120 0.0 0.0 0.00 0.00 0.00 67 1012.6
20260504035624 16 103 0.0 0.0 0.00 0.00 0.00 66 1012.8
20260504035120 17 155 0.0 0.0 0.00 0.00 0.00 65 1012.8
20260504034618 17 170 0.0 0.0 0.00 0.00 0.00 65 1012.9
20260504034115 17 102 0.0 0.0 0.00 0.00 0.00 62 1012.8
20260504033613 17 120 1.6 1.6 0.00 0.00 0.00 63 1012.8
20260504033110 17 158 1.6 1.6 0.00 0.00 0.00 64 1012.8
20260504032606 18 166 0.0 0.0 0.00 0.00 0.00 60 1012.8
20260504032104 18 106 4.8 4.8 0.00 0.00 0.00 58 1012.9
20260504031601 18 135 3.2 9.7 0.00 0.00 0.00 57 1012.9
20260504031056 18 93 1.6 8.0 0.00 0.00 0.00 57 1012.9
20260504030554 18 101 6.4 11.3 0.00 0.00 0.00 56 1012.8
20260504030050 18 120 4.8 9.7 0.00 0.00 0.00 56 1012.6
20260504025547 18 145 4.8 9.7 0.00 0.00 0.00 56 1012.7
20260504025044 18 105 6.4 9.7 0.00 0.00 0.00 55 1012.7
20260504024541 18 90 3.2 9.7 0.00 0.00 0.00 55 1012.6
20260504024038 18 118 4.8 8.0 0.00 0.00 0.00 54 1012.8
20260504023534 18 142 4.8 8.0 0.00 0.00 0.00 53 1012.5
20260504023030 18 111 4.8 11.3 0.00 0.00 0.00 53 1012.6
20260504022526 19 126 6.4 11.3 0.00 0.00 0.00 53 1012.6
20260504022023 19 112 6.4 11.3 0.00 0.00 0.00 52 1012.5
20260504021521 19 143 4.8 9.7 0.00 0.00 0.00 52 1012.7
20260504021017 19 124 4.8 8.0 0.00 0.00 0.00 51 1012.5
20260504020514 19 119 3.2 8.0 0.00 0.00 0.00 51 1012.6
20260504020011 19 87 3.2 3.2 0.00 0.00 0.00 50 1012.5
20260504015507 19 114 4.8 9.7 0.00 0.00 0.00 50 1012.6
20260504015003 19 94 4.8 4.8 0.00 0.00 0.00 50 1012.4
20260504014459 19 141 3.2 4.8 0.00 0.00 0.00 51 1012.3
20260504013956 18 117 3.2 3.2 0.00 0.00 0.00 56 1012.2
20260504013455 19 132 3.2 3.2 0.00 0.00 0.00 55 1012.5
20260504012950 19 144 1.6 1.6 0.00 0.00 0.00 53 1012.5
20260504012449 20 130 1.6 3.2 0.00 0.00 0.00 51 1012.4
20260504011946 20 137 3.2 4.8 0.00 0.00 0.00 50 1012.2
20260504011442 20 161 0.0 3.2 0.00 0.00 0.00 47 1012.3
20260504010938 20 144 1.6 8.0 0.00 0.00 0.00 44 1012.2
20260504010434 21 111 3.2 3.2 0.00 0.00 0.00 48 1012.2
20260504005931 21 193 1.6 4.8 0.00 0.00 0.00 43 1012.1
20260504005427 21 152 3.2 8.0 0.00 0.00 0.00 42 1012.2
20260504004925 21 138 1.6 8.0 0.00 0.00 0.00 42 1012.1
20260504004423 21 105 4.8 9.7 0.00 0.00 0.00 41 1012.0
20260504003919 21 86 4.8 9.7 0.00 0.00 0.00 41 1012.2
20260504003416 21 130 4.8 11.3 0.00 0.00 0.00 41 1012.2
20260504002913 22 175 3.2 4.8 0.00 0.00 0.00 40 1012.1
20260504002409 22 112 1.6 4.8 0.00 0.00 0.00 40 1012.2
20260504001907 22 149 1.6 9.7 0.00 0.00 0.00 39 1012.3
20260504001405 22 135 3.2 11.3 0.00 0.00 0.00 38 1012.3
20260504000901 22 141 3.2 8.0 0.00 0.00 0.00 37 1012.3
20260504000358 23 121 6.4 11.3 0.00 0.00 0.00 37 1012.3
20260503235855 23 129 8.0 12.9 0.00 0.00 0.00 36 1012.4
20260503235353 23 241 6.4 9.7 0.00 0.00 0.00 37 1012.5
20260503234850 23 231 4.8 14.5 0.00 0.00 0.00 35 1012.4
20260503234348 23 161 3.2 12.9 0.00 0.00 0.00 35 1012.5
20260503233845 23 169 3.2 16.1 0.00 0.00 0.00 35 1012.4
20260503233342 23 164 3.2 14.5 0.00 0.00 0.00 37 1012.5
20260503232838 23 120 6.4 14.5 0.00 0.00 0.00 34 1012.7
20260503232335 23 266 3.2 17.7 0.00 0.00 0.00 34 1012.8
20260503231833 23 248 6.4 16.1 0.00 0.00 0.00 34 1012.8
20260503231330 23 143 8.0 20.9 0.00 0.00 0.00 34 1012.7
20260503230826 23 204 4.8 9.7 0.00 0.00 0.00 37 1012.8
20260503230323 23 181 6.4 16.1 0.00 0.00 0.00 33 1012.6
20260503225821 23 216 8.0 16.1 0.00 0.00 0.00 33 1012.8
20260503225316 23 195 14.5 29.0 0.00 0.00 0.00 33 1012.7
20260503224813 23 249 12.9 16.1 0.00 0.00 0.00 32 1012.8
20260503224310 23 118 20.9 27.4 0.00 0.00 0.00 33 1012.9
20260503223808 23 257 6.4 16.1 0.00 0.00 0.00 32 1012.9
20260503223306 23 229 6.4 11.3 0.00 0.00 0.00 33 1013.0
20260503222801 23 136 9.7 14.5 0.00 0.00 0.00 33 1013.2
20260503222300 23 154 8.0 22.5 0.00 0.00 0.00 33 1013.1
20260503221757 23 190 14.5 20.9 0.00 0.00 0.00 30 1013.2
20260503221255 23 147 6.4 17.7 0.00 0.00 0.00 31 1013.2
20260503220751 23 262 14.5 17.7 0.00 0.00 0.00 31 1013.3
20260503220248 23 147 14.5 22.5 0.00 0.00 0.00 31 1013.2
20260503215745 24 192 11.3 20.9 0.00 0.00 0.00 30 1013.5
20260503215242 23 197 8.0 14.5 0.00 0.00 0.00 33 1013.5
20260503214740 23 158 4.8 25.7 0.00 0.00 0.00 31 1013.5
20260503214237 23 256 11.3 14.5 0.00 0.00 0.00 31 1013.6
20260503213735 23 151 11.3 29.0 0.00 0.00 0.00 31 1013.7
20260503213232 23 209 8.0 20.9 0.00 0.00 0.00 31 1013.7
20260503212728 23 222 8.0 17.7 0.00 0.00 0.00 30 1014.0
20260503212226 23 161 11.3 24.1 0.00 0.00 0.00 31 1014.0
20260503211724 23 206 11.3 17.7 0.00 0.00 0.00 31 1014.0
20260503211220 23 193 8.0 16.1 0.00 0.00 0.00 32 1014.3
20260503210715 23 139 8.0 17.7 0.00 0.00 0.00 33 1014.1
20260503210213 23 216 3.2 12.9 0.00 0.00 0.00 32 1014.3
20260503205708 23 227 12.9 16.1 0.00 0.00 0.00 30 1014.5
20260503205205 23 247 8.0 14.5 0.00 0.00 0.00 31 1014.7
20260503204701 23 229 12.9 17.7 0.00 0.00 0.00 30 1014.6
20260503204159 23 147 8.0 22.5 0.00 0.00 0.00 33 1014.8
20260503203656 23 174 11.3 24.1 0.00 0.00 0.00 31 1014.8
20260503203154 23 140 11.3 12.9 0.00 0.00 0.00 33 1014.9
20260503202650 23 162 9.7 17.7 0.00 0.00 0.00 31 1015.0
20260503202148 23 254 14.5 17.7 0.00 0.00 0.00 31 1015.0
20260503201646 23 212 9.7 22.5 0.00 0.00 0.00 32 1015.1
20260503201143 23 203 12.9 16.1 0.00 0.00 0.00 31 1015.2
20260503200639 22 180 9.7 12.9 0.00 0.00 0.00 31 1015.2
20260503200136 23 161 12.9 22.5 0.00 0.00 0.00 32 1015.4
20260503195633 22 201 4.8 11.3 0.00 0.00 0.00 35 1015.5
20260503195130 22 240 4.8 14.5 0.00 0.00 0.00 32 1015.6
20260503194627 22 189 12.9 17.7 0.00 0.00 0.00 32 1015.7
20260503194122 22 233 11.3 17.7 0.00 0.00 0.00 33 1016.0
20260503193620 22 233 14.5 20.9 0.00 0.00 0.00 31 1015.7
20260503193114 22 119 6.4 17.7 0.00 0.00 0.00 36 1016.1
20260503192610 22 152 9.7 27.4 0.00 0.00 0.00 32 1016.1
20260503192106 22 189 8.0 24.1 0.00 0.00 0.00 33 1016.4
20260503191557 22 217 6.4 11.3 0.00 0.00 0.00 34 1016.3
20260503191054 22 159 6.4 12.9 0.00 0.00 0.00 36 1016.3
20260503190551 22 179 8.0 11.3 0.00 0.00 0.00 33 1016.5
20260503190048 21 170 4.8 14.5 0.00 0.00 0.00 35 1016.6
20260503185539 22 238 9.7 14.5 0.00 0.00 0.00 33 1016.6
20260503185039 21 265 8.0 17.7 0.00 0.00 0.00 36 1016.9
20260503184535 21 150 14.5 24.1 0.00 0.00 0.00 36 1017.0
20260503184032 21 153 4.8 16.1 0.00 0.00 0.00 36 1017.2
20260503183528 21 298 9.7 12.9 0.00 0.00 0.00 34 1017.3
20260503183025 21 200 8.0 11.3 0.00 0.00 0.00 36 1017.2
20260503182524 21 132 3.2 11.3 0.00 0.00 0.00 39 1017.6
20260503182021 21 138 3.2 20.9 0.00 0.00 0.00 39 1017.8
20260503181518 20 101 4.8 12.9 0.00 0.00 0.00 37 1017.7
20260503181014 21 121 4.8 17.7 0.00 0.00 0.00 36 1018.0
20260503180512 20 191 0.0 11.3 0.00 0.00 0.00 37 1017.8
20260503180009 21 150 8.0 12.9 0.00 0.00 0.00 35 1017.9
20260503175507 21 195 3.2 14.5 0.00 0.00 0.00 36 1018.1
20260503175003 20 115 8.0 22.5 0.00 0.00 0.00 35 1018.3
20260503174501 20 209 8.0 12.9 0.00 0.00 0.00 39 1018.4
20260503173956 20 202 11.3 16.1 0.00 0.00 0.00 40 1018.5
20260503173452 20 148 8.0 22.5 0.00 0.00 0.00 40 1018.6
20260503172949 19 156 8.0 12.9 0.00 0.00 0.00 38 1018.6
20260503172446 20 221 16.1 17.7 0.00 0.00 0.00 38 1018.7
20260503171943 19 276 4.8 20.9 0.00 0.00 0.00 36 1019.2
20260503171439 19 172 9.7 24.1 0.00 0.00 0.00 40 1019.0
20260503170937 19 148 8.0 20.9 0.00 0.00 0.00 37 1019.1
20260503170433 18 154 4.8 16.1 0.00 0.00 0.00 37 1019.3
20260503150825 15 216 16.1 17.7 0.00 0.00 0.00 47 1020.5
20260503150321 15 125 12.9 14.5 0.00 0.00 0.00 48 1020.2
20260503140246 11 136 0.0 4.8 0.00 0.00 0.00 77 1021.0
20260503131215 7 161 0.0 0.0 0.00 0.00 0.00 94 1021.1
20260503130713 6 164 0.0 0.0 0.00 0.00 0.00 96 1020.9